Regional Weather Roundup
Issued by NWS

Home | Current Version | Previous Version | Text Only | Print | Product List | Glossary Off
Versions: 1 2 3 4 5 6 7 8 9 10 11 12 13 14 15 16 17 18 19 20 21 22 23 24 25 26 27 28 29 30 31 32 33 34 35 36 37 38 39 40 41 42 43 44 45 46 47 48 49 50

118
ASUS43 KDTX 130801
RWRMI
MICHIGAN HOURLY REGIONAL WEATHER ROUNDUP
NATIONAL WEATHER SERVICE DETROIT/PONTIAC MI
300 AM EST SAT FEB 13 2016

NOTE: "FAIR" INDICATES FEW OR NO CLOUDS BELOW 12,000 FEET WITH NO
SIGNIFICANT WEATHER AND/OR OBSTRUCTION TO VISIBILITY.

MIZ047>049-052>055-059>063-066>070-074>076-081>083-130900-
SOUTHEAST LOWER MICHIGAN

CITY           SKY/WX    TMP DP  RH WIND       PRES   REMARKS
ADRIAN         CLEAR      5 -10  50 N9        30.34R WCI  -9
ALMA           CLEAR      5  -3  72 W10       30.32R WCI -10
ANN ARBOR      PTCLDY     3  -9  57 NW7       30.31R WCI  -9
BAD AXE        MOCLDY     3  -6  65 N13       30.27R WCI -14
DETROIT CITY   MOCLDY     6  -5  60 NW7       30.30R WCI  -6
DETROIT        PTCLDY     5  -6  60 NW10      30.32R WCI -10
FLINT          PTCLDY     2  -9  60 NW7       30.30R WCI -11
GROSSE ILE     CLEAR      7  -6  56 NW9       30.31R WCI  -7
HILLSDALE      CLEAR      3 -10  56 NW10      30.30R WCI -13
HOWELL         PTCLDY     1  -9  62 W7        30.29R WCI -12

CITY           SKY/WX    TMP DP  RH WIND       PRES   REMARKS
JACKSON        CLEAR      2 -10  57 NW8       30.31R WCI -12
LAMBERTVILLE   CLEAR      6  -7  54 NW8G17    30.34R WCI  -7
LANSING        CLEAR      3  -7  63 W8        30.33R WCI -10
LAPEER         CLOUDY     3  -3  78 NW3       30.28R HAZE
MASON          PTCLDY     2  -8  63 W7        30.31R WCI -10
MONROE         PTCLDY     6  -7  53 NW9G18    30.32R WCI  -7
MT. CLEMENS    PTCLDY     5  -5  64 NW9       30.28R WCI  -9
PONTIAC        CLEAR      2  -6  69 NW12      30.26R WCI -15
PORT HOPE        N/A      6  -4  63 NW21G36   30.25R WCI -14
PORT HURON     CLEAR      3  -8  60 NW12      30.27R WCI -13
TRI CITIES     PTCLDY     4  -6  63 W9        30.32R WCI -10
MIDLAND        FAIR       1  -6  71 CALM      30.31R
TROY           MOCLDY     7  -3  65 W7        30.31R WCI  -5
SAGINAW HB     PTCLDY     3  -4  72 W8        30.31R WCI -10
$$
MIZ043>046-050>051-056>058-064>065-071>073-077>080-130900-
SOUTHWEST LOWER MICHIGAN

CITY           SKY/WX    TMP DP  RH WIND       PRES   REMARKS
BATTLE CREEK   CLEAR      3  -7  63 NW7       30.35R WCI  -9
BENTON HARBOR  LGT SNOW  13   6  74 VRB6      30.41R VSB 1   WCI   4
BIG RAPIDS     CLEAR      2  -1  85 W6        30.29R WCI  -9
COLDWATER      CLEAR      3  -8  58 NW5       30.34R WCI  -6
FREMONT        CLOUDY     8   0  69 NW9       30.35R WCI  -6
HOLLAND        LGT SNOW   8   3  80 N3        30.39R
GRAND RAPIDS   CLEAR      3  -3  76 W6        30.36R WCI  -8
IONIA          FAIR       3  -4  72 W8        30.33R WCI -10
KALAMAZOO      MOCLDY     1  -8  66 NW5       30.36R WCI  -9
LUDINGTON      LGT SNOW  10   2  71 NW12G18   30.37R WCI  -5
MARSHALL       PTCLDY     3  -4  72 MISG      30.33R
MOUNT PLEASANT PTCLDY     5  -3  69 W6        30.30R WCI  -5
MUSKEGON       LGT SNOW  10   2  69 N10G20    30.39R WCI  -4
SOUTH HAVEN      N/A      8   4  86 E3        30.40R
$$
MIZ016>042-130900-
NORTHERN LOWER MICHIGAN

CITY           SKY/WX    TMP DP  RH WIND       PRES   REMARKS
ALPENA         LGT SNOW  -4 -10  75 N10       30.31R WCI -21
BEAVER ISLAND  LGT SNOW  -2  -6  82 E7        30.33R WCI -15
BELLAIRE       MOCLDY    -3  -9  75 NE5       30.34R WCI -13
CADILLAC       LGT SNOW   4  -1  79 W9        30.22R WCI -10
CHARLEVOIX     MOCLDY    -4 -10  75 E13       30.34R WCI -23
FRANKFORT      CLOUDY    10  -1  60 NW13G23   30.34R HAZE    WCI  -5
GAYLORD        PTCLDY    -9 -15  75 NE7       30.23R WCI -24
GRAYLING       CLEAR     -8 -14  76 NE5       30.27R WCI -19
HARBOR SPRINGS PTCLDY    -9 -16  73 E6        30.32R WCI -23
HOUGHTON LAKE  CLOUDY    -2 -10  69 N6        30.26R WCI -14
MANISTEE       CLOUDY    10   0  61 NW21G28   30.34R WCI  -9
OSCODA         CLEAR     -3 -11  69 N6        30.30R WCI -15
PELLSTON       CLOUDY    -9 -15  75 E5        30.35R WCI -20
ROGERS CITY    CLOUDY    -5 -13  69 NW12G17   30.33S HAZE    WCI -23
TRAVERSE CITY  LGT SNOW   4  -2  76 E9        30.30R WCI -10
$$
MIZ007>008-015-130900-
EASTERN UPPER MICHIGAN

CITY           SKY/WX    TMP DP  RH WIND       PRES   REMARKS
KINROSS        CLOUDY   -13 -24  58 CALM      30.33R
MACKINAC ISLAN PTCLDY   -11 -21  61 NE10      30.34R WCI -30
NEWBERRY       LGT SNOW  -6 -10  85 SE8       30.30R WCI -22
S. S. MARIE    CLEAR    -13 -26  52 NE9G17    30.32R WCI -31
$$
MIZ004>006-011>014-085-130900-
CENTRAL UPPER MICHIGAN

CITY           SKY/WX    TMP DP  RH WIND       PRES   REMARKS
MANISTIQUE     LGT SNOW   4   0  83 W7        30.31R WCI  -8
ESCANABA       CLEAR      0 -29  24 W12       30.37R WCI -18
MENOMINEE      CLEAR     -2  -9  71 W7        30.42R WCI -16
SAWYER-GWINN   FLURRIES  -1  -6  78 NW16      30.30R WCI -21
$$
MIZ001>003-009>011-084-130900-
WESTERN UPPER MICHIGAN

CITY           SKY/WX    TMP DP  RH WIND       PRES   REMARKS
IRON MOUNTAIN  CLEAR    -12 -18  74 CALM      30.36R
HOUGHTON       LGT SNOW   1  -6  72 NW16      30.37R VSB 3/4 WCI -19
COPPER HARBOR    N/A      5   1  83 NE29G36   30.38R WCI -19
IRONWOOD       CLOUDY     1  -2  85 NW8       30.43R VSB 1   WCI -12
$$

ABBREVIATIONS USED IN REMARKS
   TC - TEMPERATURE IN CELSIUS
  WCI - WIND CHILL INDEX
   HX - HEAT INDEX
  VSB - VISIBILITY





USA.gov is the U.S. government's official web portal to all federal, state and local government web resources and services.